Regional Weather Roundup
Issued by NWS

Home | Current Version | Previous Version | Text Only | Print | Product List | Glossary Off
Versions: 1 2 3 4 5 6 7 8 9 10 11 12 13 14 15 16 17 18 19 20 21 22 23 24 25 26 27 28 29 30 31 32 33 34 35 36 37 38 39 40 41 42 43 44 45 46 47 48 49 50

000
ASUS43 KOAX 221010
RWRNE

WEATHER ROUNDUP FOR NEBRASKA
NATIONAL WEATHER SERVICE OMAHA NE
500 AM CDT TUE APR 22 2014

NOTES: SATELLITE DATA IS BEING USED TO AUGMENT CLOUD COVER ABOVE
       12000 FEET.
       "FAIR" INDICATES FEW OR NO CLOUDS BELOW 12,000 FEET WITH NO
       SIGNIFICANT WEATHER AND/OR OBSTRUCTIONS TO VISIBILITY.

  * THESE STATIONS DO NOT REPORT WEATHER SUCH AS RAIN...SNOW OR FOG.

NEZ001>004-019>022-054>056-221100-
NEBRASKA PANHANDLE

CITY           SKY/WX    TMP DP  RH WIND       PRES   REMARKS
SCOTTSBLUFF    PTCLDY    46  29  51 E12       30.01F
ALLIANCE       CLEAR     45  28  51 S16       30.03F
CHADRON        CLEAR     53  29  39 S30G39    29.94F
KIMBALL        CLEAR     44  31  58 S13       30.04F
SIDNEY         CLEAR     48  32  53 S14       30.06F
$$

NEZ057>060-069>072-079>082-221100-
SOUTHWEST NEBRASKA

CITY           SKY/WX    TMP DP  RH WIND       PRES   REMARKS
NORTH PLATTE   CLEAR     36  28  73 E5        30.13F WCI  32
IMPERIAL       PTCLDY    42  28  57 SE9       30.12F
LEXINGTON      CLEAR     38  31  77 SE3       30.14F
MCCOOK         PTCLDY    46  30  53 SE6       30.15S
OGALLALA       PTCLDY    46  28  49 E3        30.11F
$$

NEZ005>010-023>029-035>040-094-221100-
NORTH CENTRAL NEBRASKA

CITY           SKY/WX    TMP DP  RH WIND       PRES   REMARKS
VALENTINE      CLEAR     43  29  57 SE8       30.10F
AINSWORTH      CLEAR     39  31  73 S8        30.12S WCI  34
BROKEN BOW     CLEAR     33  27  78 CALM      30.14S
O`NEILL        CLEAR     38  29  68 S6        30.14S WCI  34
ORD            CLEAR     31  26  82 SW3       30.14S
THEDFORD       MOCLDY    48  28  44 S10       30.12F
$$

NEZ041-046>049-061>064-073>077-083>087-221100-
SOUTH CENTRAL NEBRASKA

CITY           SKY/WX    TMP DP  RH WIND       PRES   REMARKS
GRAND ISLAND   CLEAR     42  30  62 CALM      30.15F
AURORA         CLEAR     41  31  67 E5        30.15S
HASTINGS       CLEAR     44  31  60 CALM      30.15R
HEBRON         CLEAR     38  32  77 CALM      30.15R
HOLDREGE       CLEAR     43  30  60 S6        30.15S
KEARNEY *      CLEAR     43  30  61 E3        30.15S
YORK           CLEAR     41  30  65 NE5       30.16R
$$

NEZ011>018-030>034-042>045-221100-
NORTHEAST NEBRASKA

CITY           SKY/WX    TMP DP  RH WIND       PRES   REMARKS
NORFOLK        CLEAR     38  30  73 CALM      30.15S
ALBION         CLEAR     34  29  83 CALM      30.15F
BLAIR          CLEAR     46  31  57 NE7       30.15F
COLUMBUS *     CLEAR     39  27  60 E6        30.16F WCI  35
FREMONT        CLEAR     39  32  75 W3        30.16S
TEKAMAH        CLEAR     34  25  69 CALM      30.16F
$$

NEZ050>053-065>068-078-088>093-221100-
SOUTHEAST NEBRASKA

CITY           SKY/WX    TMP DP  RH WIND       PRES   REMARKS
LINCOLN        CLEAR     43  32  65 N6        30.17R
OMAHA EPPLEY   CLEAR     42  34  73 N5        30.16F
BEATRICE       CLEAR     44  32  62 NE3       30.15R
FALLS CITY     CLEAR     46  34  62 N5        30.14R
NEBRASKA CITY  CLEAR     45  32  61 NE8       30.16R
PLATTSMOUTH    CLEAR     44  32  61 N6        30.16S
$$

NEZ044-045-051>053-067-221100-
OMAHA AREA

CITY           SKY/WX    TMP DP  RH WIND       PRES   REMARKS
OMAHA EPPLEY   CLEAR     42  34  73 N5        30.16F
BLAIR          CLEAR     46  31  57 NE7       30.15F
FREMONT        CLEAR     39  32  75 W3        30.16S
MILLARD        CLEAR     46  32  58 CALM      30.16S
OFFUTT AFB     CLEAR     46  32  56 NE6       30.16S
PLATTSMOUTH    CLEAR     44  32  61 N6        30.16S
WAHOO          FAIR      40  30  69 N5        30.16S
$$



USA.gov is the U.S. government's official web portal to all federal, state and local government web resources and services.